This is the latest recevied weather packets stored in our database for station/object DB0GMN-13. If no packets are shown the sender has not sent any weather packets the latest 10 day(s).
| Time | Temp. | Humidity | Pressure | Rain* | Wind** | Luminosity | Snow |
|---|---|---|---|---|---|---|---|
| 1777818387 | -1.11° C | 99% | 1008 hPa | 0 mm | - | 473 W/m² | - |
| 1777814743 | -1.11° C | 93% | 1008.8 hPa | 0 mm | - | 680 W/m² | - |
| 1777813535 | -1.11° C | 93% | 1008.9 hPa | 0 mm | - | 606 W/m² | - |
| 1777810516 | - | - | 1009.2 hPa | 0 mm | - | 748 W/m² | - |
| 1777809370 | -33.33° C | 99% | 1009.4 hPa | 0 mm | - | 859 W/m² | - |
| 1777807557 | 20° C | 99% | 1009.7 hPa | 0 mm | - | 423 W/m² | - |
| 1777806953 | 1.11° C | 99% | 1009.7 hPa | 0 mm | - | 742 W/m² | - |
| 1777805746 | 17.78° C | 99% | 1009.9 hPa | 0 mm | - | 848 W/m² | - |
| 1777805143 | - | - | 1010 hPa | 0 mm | - | 828 W/m² | - |
| 1777802726 | 6.11° C | - | 1010.3 hPa | 0 mm | - | 794 W/m² | - |
| 1777796747 | -1.11° C | 93% | 1010.9 hPa | 0 mm | - | 553 W/m² | - |
| 1777787145 | -1.11° C | 93% | 1010.7 hPa | 0 mm | - | 92 W/m² | - |
| 1777785938 | -1.11° C | 93% | 1010.8 hPa | 0 mm | - | 81 W/m² | - |
| 1777785335 | -1.11° C | 93% | 1010.9 hPa | 0 mm | - | 108 W/m² | - |
| 1777782919 | -1.11° C | 96% | 1010.9 hPa | 0 mm | - | 59 W/m² | - |
| 1777782375 | -1.11° C | 96% | 1011.1 hPa | 0 mm | - | 40 W/m² | - |
| 1777781772 | -1.11° C | 94% | 1011.1 hPa | 0 mm | - | 25 W/m² | - |
| 1777780565 | -1.11° C | 93% | 1011 hPa | 0 mm | - | 16 W/m² | - |
| 1777779358 | -1.11° C | 97% | 1011.2 hPa | 0 mm | - | 6 W/m² | - |
| 1777773920 | -1.11° C | 93% | 1011.5 hPa | 0 mm | - | 0 W/m² | - |
| 1777773316 | -1.11° C | 93% | 1011.4 hPa | 0 mm | - | 0 W/m² | - |
| 1777766756 | -1.11° C | 93% | 1011.8 hPa | 0 mm | - | 0 W/m² | - |
| 1777762569 | -1.11° C | 93% | 1012 hPa | 0 mm | - | 0 W/m² | - |
| 1777761361 | -1.11° C | 93% | 1012.1 hPa | 0 mm | - | 0 W/m² | - |
| 1777754173 | 17.78° C | 93% | 1012.4 hPa | 0 mm | - | 0 W/m² | - |
* Rain latest hour (hover to see other rain measurements)
** Current wind speed in m/s (hover to see current wind gust speed)